Regional Weather Roundup
Issued by NWS Upton, NY

Home | Current Version | Previous Version | Text Only | Print | Product List | Glossary On
Versions: 1 2 3 4 5 6 7 8 9 10 11 12 13 14 15 16 17 18 19 20 21 22 23 24 25 26 27 28 29 30 31 32 33 34 35 36 37 38 39 40 41 42 43 44 45 46 47 48 49 50
000
ASUS41 KOKX 170205
RWROKX
REGIONAL WEATHER ROUNDUP
NATIONAL WEATHER SERVICE NEW YORK NY
1000 PM EDT TUE SEP 16 2014

NOTE: "FAIR" INDICATES FEW OR NO CLOUDS BELOW 12,000 FEET WITH NO
SIGNIFICANT WEATHER AND/OR OBSTRUCTIONS TO VISIBILITY.

NYZ071-072-176-178-NJZ106-104-170300-
NEW YORK CITY METRO AREA


CITY           SKY/WX    TMP DP  RH WIND       PRES   REMARKS
CENTRAL PARK   CLOUDY    66  49  54 VRB3      30.03F
LAGUARDIA APRT MOCLDY    67  52  58 N7        30.00S
KENNEDY INTL   PTCLDY    63  57  81 CALM      30.01S
NEWARK/LIBERTY MOCLDY    65  51  60 NW9       30.01S
BRNX BOT. GARD   N/A     64  52  63 N6        30.01S
TETERBORO      MOCLDY    64  51  62 NW3       30.00S
$$

NYZ177-179-078>081-170300-
LONG ISLAND NEW YORK

CITY           SKY/WX    TMP DP  RH WIND       PRES   REMARKS
FARMINGDALE    CLEAR     63  57  81 CALM      30.01S
ISLIP          MOCLDY    59  56  89 CALM      29.99S
SHIRLEY        PTCLDY    58  55  90 CALM      30.01R
WESTHAMPTON    MOCLDY    53  51  93 CALM      30.01S
MONTAUK POINT    N/A     64  57  78 NW5       30.00F
$$

NYZ052-065-067-170300-
HUDSON VALLEY

CITY           SKY/WX    TMP DP  RH WIND       PRES   REMARKS
WHITE PLAINS   PTCLDY    57  54  89 NW6       30.01S
NEWBURGH       PTCLDY    55  52  88 W6        30.03S
MONTGOMERY     PTCLDY    50  49  96 CALM      30.03R
POUGHKEEPSIE   PTCLDY    57  54  89 N3        30.01R
ALBANY         CLEAR     55  46  71 W9        30.02R
$$

NJZ001-105-106-008-010-013-015-019>022-104-170300-
NEW JERSEY

CITY           SKY/WX    TMP DP  RH WIND       PRES   REMARKS
NEWARK/LIBERTY MOCLDY    65  51  60 NW9       30.01S
TETERBORO      MOCLDY    64  51  62 NW3       30.00S
CALDWELL       CLOUDY    58  52  80 CALM      30.03R
MORRISTOWN     PTCLDY    55  54  94 CALM      30.03S
SOMERVILLE     MOCLDY    53  51  93 CALM      30.01S
LINDEN         FAIR      66  55  66 NW6       30.03S
SUSSEX         CLEAR     51  48  89 CALM      30.04R FOG
ANDOVER          N/A     51  50  96 CALM      30.05R
TRENTON        CLEAR     59  50  72 NE3       30.03R
MILLVILLE      PTCLDY    60  56  86 N6        30.02R
ATLANTIC CITY  PTCLDY    60  58  92 CALM      30.02R
WRIGHTSTOWN    PTCLDY    59  55  88 N2        30.00R
TOMS RIVER     PTCLDY    55  54  94 CALM      30.02S
BELMAR         CLEAR     59  54  82 S3        30.02R
$$

PAZ047>061-062-071-170300-
EASTERN PENNSYLVANIA

CITY           SKY/WX    TMP DP  RH WIND       PRES   REMARKS
PHILADELPHIA   PTCLDY    66  50  56 N9        30.03R
ALLENTOWN      CLEAR     56  48  74 CALM      30.04R
SCRANTON       CLEAR     52  47  83 E7        30.05R
$$

CTZ002-004>006-009-010-012-RIZ004-006-007-MAZ004-011-015-170300-
SOUTHERN NEW ENGLAND
 IN CT

CITY           SKY/WX    TMP DP  RH WIND       PRES   REMARKS
BRADLEY INTL   MOCLDY    59  53  80 W3        30.00R
HARTFORD       CLEAR     56  52  86 SE10      30.00S
DANBURY        CLOUDY    56  53  90 SW5       30.03R
WTRBRY/OXFORD  CLOUDY    55  48  76 CALM      30.03S
BRIDGEPORT     CLOUDY    63  55  75 NW3       30.00S
MERIDEN        PTCLDY    54  51  90 CALM      30.01S
NEW HAVEN      PTCLDY    60  53  77 CALM      30.01R
CHESTER        FAIR      57  55  94 NW3       30.01S
GROTON         MOCLDY    56  55  97 NW3       29.99S
WILLIMANTIC    PTCLDY    57  55  93 CALM      30.00S

 IN RI

CITY           SKY/WX    TMP DP  RH WIND       PRES   REMARKS
PROVIDENCE     MOCLDY    63  54  72 CALM      29.99S
BLOCK ISLAND   CLEAR     61  54  77 NW5       29.99S
WESTERLY       CLOUDY    57  55  93 CALM      30.00S

 IN MA

CITY           SKY/WX    TMP DP  RH WIND       PRES   REMARKS
BOSTON         PTCLDY    60  54  80 S5        29.99S
WORCESTER      MOCLDY    56  52  86 W7        30.00S
WESTFIELD      CLEAR     55  51  86 NW6       30.00S
PROVINCETOWN   CLOUDY    55  52  88 CALM      29.99S
NANTUCKET      CLEAR     56  52  86 CALM      29.99S
$$

ANZ330-335-338-340-345-350-353-355-170300-
COASTAL MARINE OBSERVATIONS


STATION/POSITION TIME  SKY/WX   TEMP    WIND        PRES    VSBY  WAVE
                                AIR SEA DIR/SP/G                  HT/PER
                 (UTC)          (F)     (DEG/KT/KT) (MB)    (MI)  (FT/S)
NY HARB ENTRANCE NOT AVBL
4S FIRE IS       NOT AVBL
23SW MTP         0200                                 N/A           2/12
HUDSON CANYON    0200            67 74   30/  6/ 10 1015.2          2/14
EXECUTION ROCKS  0200            67 71  320/  8/  8   N/A
WESTERN LI SOUND 0200            66     330/  6/  8   N/A           0
CENTRAL LI SOUND 0100            67 71  330/ 10/ 12   N/A           0
EASTERN LI SOUND 0100            64 68  300/  6/  8   N/A
ROBBINS REEF     0200            66     330/  7/  9 1014.9
$$


>>>>>>>>>>>>>>>>>>>>>>>>>>>> KEY <<<<<<<<<<<<<<<<<<<<<<<<<<<
>                                                          <
>     SKY/WX - SKY CONDITION/PRESENT WEATHER               <
>     TMP    - TEMPERATURE IN FAHRENHEIT                   <
>     DP     - DEWPOINT IN FAHRENHEIT                      <
>     RH     - RELATIVE HUMIDITY IN PERCENT                <
>     WIND   - DIRECTION AND SPEED IN MPH                  <
>     PRES   - MEAN SEA LEVEL PRESSURE IN INCHES OF HG     <
>     WCI    - WIND CHILL INDEX                            <
>     VSB    - VISIBILITY IN MILES                         <
>     HX     - HEAT INDEX                                  <
>     TC     - TEMPERATURE IN CELSIUS                      <
>     VRB    - VARIABLE WIND DIRECTION                     <
>                                                          <
>>>>>>>>>>>>>>>>>>>>>>>>>>>> KEY <<<<<<<<<<<<<<<<<<<<<<<<<<<




USA.gov is the U.S. government's official web portal to all federal, state and local government web resources and services.